Tracking 17844 objects as of 27-August-2016
HD Live streaming from Space Station
objects crossing your sky now

ECHOSTAR 1

Track ECHOSTAR 1 now!
ECHOSTAR 1 is classified as:


NORAD ID: 23754
Int'l Code: 1995-073A
Perigee: 35,780.6 km
Apogee: 35,807.8 km
Inclination: 0.2 °
Period: 1,436.1 minutes
Semi major axis: 42165 km
RCS: 30.9641 m2 (large)
Launch date: December 28, 1995
Source: United States (US)
Launch site: Xichang Space Center, China (XSC)

Western United States to Central/Mountain region; 16 Ku-band transponders
Your satellite tracking list
Your tracking list is empty





NASA's NSSDC Master Catalog

Two Line Element Set (TLE):
1 23754U 95073A   16238.99147818 -.00000268  00000-0  00000+0 0  9998
2 23754   0.1914  92.1924 0003228  95.8870  66.2512  1.00270103 75522
Source of the keplerian elements: AFSPC

N2YO: 501